Location: Unspecified
(22.6800°N, 112.2000°E)
Time: 08:24:36
(UTC+08:00)

Courier 1B Rocket - Pass Details

Date: 07 August 2021
Orbit: 920 x 1202 km, 28.3° (Epoch: 22 September)

Event Time Altitude Azimuth Distance (km) Brightness Sun altitude
Exits shadow 05:29:40 - 282° (WNW) 3,300 7.3 -8.5°
Reaches altitude 10° 05:31:21 10° 279° (W) 2,708 6.8 -8.1°
Maximum altitude 05:37:34 49° 206° (SSW) 1,193 5.2 -6.8°
Drops below altitude 10° 05:43:33 10° 133° (SE) 2,603 7.6 -5.5°
Sets 05:46:12 0° 127° (SE) 3,540 8.4 -4.9°
